Berlin, NH

4:45 PM EDT on April 26, 2017 (GMT -0400)
Berlin Municipal

Weather History for KBML - January, 2011

Change the Weather History Date:

Saturday, January 8, 2011

  Actual Average Record
Temperature  
Mean Temperature 8 °F -  
Max Temperature 23 °F 22 °F 59 °F (2008)
Min Temperature -6 °F 2 °F -27 °F (2004)
Degree Days  
Heating Degree Days 56    
Moisture  
Dew Point 3 °F    
Average Humidity 81    
Maximum Humidity 92    
Minimum Humidity 65    
Precipitation  
Precipitation 0.00 in - - ()
Sea Level Pressure  
Sea Level Pressure 29.50 in    
Wind  
Wind Speed 0 mph (North)    
Max Wind Speed 0 mph    
Max Gust Speed -    
Visibility 9 miles    
Events Snow    
Averages and records for this station are not official NWS values.
T = Trace of Precipitation, MM = Missing Value Source: NWS Daily Summary

Daily Weather History Graph

Daily Weather History Graph

Search for Another Location

Airport or City:

Trip Planner

Search our weather history database for the weather conditions in past years. The results will help you decide how hot, cold, wet, or windy it might be!

Date:

Astronomy

Jan. 08, 2011 Rise Set
Actual Time 7:20 AM EST 4:22 PM EST
Civil Twilight 6:47 AM EST 4:55 PM EST
Nautical Twilight 6:11 AM EST 5:31 PM EST
Astronomical Twilight 5:36 AM EST 6:06 PM EST
Moon 9:16 AM EST (1/8) 9:04 PM EST (1/8)
Length of Visible Light 10h 07m
Length of Day
9h 01m
Waxing Crescent, 17% of the Moon is Illuminated
Jan 8
Waxing Crescent
Jan 12
First Quarter
Jan 19
Full
Jan 26
Last Quarter
Feb 2
New

Hourly Weather History & Observations

Time (EST) Temp. Dew Point Humidity Pressure Visibility Wind Dir Wind Speed Gust Speed Precip Events Conditions
12:52 AM -2.9 °F -7.1 °F 82% 29.54 in 10.0 mi Calm Calm - N/A   Partly Cloudy
1:52 AM -0.9 °F -7.1 °F 75% 29.54 in 10.0 mi Calm Calm - N/A   Clear
2:52 AM -4.0 °F -9.9 °F 76% 29.54 in 10.0 mi Calm Calm - N/A   Clear
3:52 AM -4.0 °F -9.0 °F 79% 29.53 in 10.0 mi Calm Calm - N/A   Clear
4:52 AM -6.0 °F -11.0 °F 79% 29.54 in 10.0 mi Calm Calm - N/A   Clear
5:37 AM -5.8 °F -9.4 °F 84% 29.45 in 10.0 mi Calm Calm - N/A   Mostly Cloudy
5:49 AM -5.8 °F -11.2 °F 77% 29.46 in 10.0 mi Calm Calm - N/A   Overcast
5:52 AM -6.0 °F -11.0 °F 79% 29.55 in 10.0 mi Calm Calm - N/A   Overcast
6:21 AM -4.0 °F -7.6 °F 85% 29.46 in 7.0 mi Calm Calm - N/A   Overcast
6:52 AM -2.9 °F -8.0 °F 79% 29.55 in 8.0 mi Calm Calm - N/A   Overcast
7:13 AM -2.2 °F -7.6 °F 78% 29.47 in 10.0 mi Calm Calm - N/A   Overcast
7:52 AM -2.0 °F -6.0 °F 83% 29.57 in 3.0 mi Calm Calm - N/A   Overcast
8:08 AM -2.2 °F -5.8 °F 85% 29.48 in 2.5 mi Calm Calm - N/A   Overcast
8:52 AM 1.9 °F -0.9 °F 88% 29.57 in 9.0 mi Calm Calm - N/A   Overcast
8:59 AM 3.2 °F -0.4 °F 85% 29.48 in 10.0 mi Calm Calm - N/A   Overcast
9:52 AM 8.1 °F 3.9 °F 83% 29.57 in 10.0 mi Calm Calm - N/A   Overcast
10:52 AM 12.0 °F 8.1 °F 84% 29.55 in 10.0 mi Calm Calm - N/A   Overcast
11:52 AM 16.0 °F 9.0 °F 74% 29.53 in 10.0 mi Calm Calm - N/A   Mostly Cloudy
12:22 PM 17.6 °F 10.4 °F 73% 29.44 in 10.0 mi Calm Calm - N/A   Mostly Cloudy
12:52 PM 19.9 °F 12.0 °F 71% 29.52 in 10.0 mi Calm Calm - N/A   Overcast
1:52 PM 21.9 °F 12.0 °F 66% 29.50 in 10.0 mi Calm Calm - N/A   Overcast
2:52 PM 23.0 °F 12.9 °F 65% 29.49 in 10.0 mi Calm Calm - N/A   Clear
3:52 PM 21.0 °F 12.9 °F 71% 29.49 in 10.0 mi Calm Calm - N/A   Clear
4:52 PM 17.1 °F 12.9 °F 84% 29.50 in 10.0 mi Calm Calm - N/A   Clear
5:52 PM 15.1 °F 12.0 °F 88% 29.52 in 10.0 mi Calm Calm - N/A   Overcast
6:35 PM 12.2 °F 10.4 °F 92% 29.43 in 10.0 mi Calm Calm - N/A   Mostly Cloudy
6:52 PM 14.0 °F 10.9 °F 88% 29.52 in 10.0 mi Calm Calm - N/A   Overcast
7:43 PM 14.0 °F 10.4 °F 86% 29.44 in 10.0 mi Calm Calm - N/A   Overcast
7:52 PM 14.0 °F 10.9 °F 88% 29.52 in 9.0 mi Calm Calm - N/A   Overcast
8:12 PM 14.0 °F 10.4 °F 86% 29.43 in 9.0 mi Calm Calm - N/A   Overcast
8:52 PM 12.9 °F 10.0 °F 88% 29.49 in 8.0 mi Calm Calm - N/A   Overcast
9:52 PM 15.1 °F 12.0 °F 88% 29.50 in 6.0 mi Calm Calm - N/A   Overcast
10:52 PM 16.0 °F 12.9 °F 88% 29.49 in 5.0 mi Calm Calm - N/A   Overcast
11:52 PM 16.0 °F 12.9 °F 88% 29.47 in 4.0 mi Calm Calm - 0.00 in Snow Light Snow